User: anonymous   Login
Location: Unspecified
(0.0000°N, 0.0000°E)
Time: 14:46:03
(UTC+00:00)
Language:

DOVE 4 - Orbit

View from above orbital plane
View from above orbital plane
View from above satellite
View from above satellite

Ground track
Ground track

The orbit data is extracted from the following two-line orbital elements,

1 39430U 13066Q   17202.94537498 +.00000165 +00000-0 +39437-4 0  9998
2 39430 097.6659 199.3339 0150477 293.5588 064.9868 14.58886146194819
Epoch (UTC): 21 July 2017 22:41:20
Eccentricity: 0.0150477
inclination: 97.6659°
perigee height: 590 km
apogee height: 803 km
right ascension of ascending node: 199.3339°
argument of perigee: 293.5588°
revolutions per day: 14.58886146
mean anomaly at epoch: 64.9868°
orbit number at epoch: 19481

The dashed part of the orbit path shows where the satellite is in the earth's shadow,  

DLR